Location: *
(55.6049°S, 142.1985°W)
Time: 01:27:25
(UTC+00:00)

Cosmos 1818 - Pass Details

Date: 12 May 2021
Orbit: 771 x 802 km, 65.0° (Epoch: 23 June)

Event Time Altitude Azimuth Distance (km) Brightness Sun altitude
Exits shadow 14:14:08 47° 206° (SSW) 1,036 3.9 -25.0°
Drops below altitude 10° 14:19:19 10° 134° (SE) 2,356 6.6 -24.3°
Sets 14:21:49 0° 127° (SE) 3,285 7.6 -23.9°
